Location: Poughquag
(41.6090°N, 73.6820°W)
Time: 05:38:03
(UTC-04:00)

STARLINK-1335 - Pass Details

Date: 29 May 2020
Orbit: 549 x 550 km, 53.0° (Epoch: 26 September)

Event Time Altitude Azimuth Distance (km) Brightness Sun altitude
Exits shadow 01:26:39 10° 288° (WNW) 1,833 6.4 -26.2°
Maximum altitude 01:29:59 23° 342° (NNW) 1,202 5.9 -26.1°
Drops below altitude 10° 01:33:20 10° 36° (NE) 1,829 7.1 -26.0°
Sets 01:35:56 0° 51° (NE) 2,721 7.9 -25.9°
